W5GED Weather Reports


time (UTC)temp
F
wind
direction
speed
knots
gust
knots
rain 1hr
in
rain 24hr
in
rain mn
in
humidity
%
barometer
mb
20260904042016 81 170 0.9 2.6 0.00 0.43 0.43 91 1012.5
20260904041015 81 84 0.9 2.6 0.00 0.43 0.43 92 1012.5
20260904040016 81 113 0.0 0.9 0.00 0.43 0.43 92 1012.5
20260904035031 81 67 0.9 2.6 0.00 0.43 0.43 92 1012.6
20260904034031 81 100 0.0 1.7 0.00 0.43 0.43 92 1012.7
20260904033031 81 53 0.0 0.9 0.00 0.43 0.43 92 1012.6
20260904032032 81 71 0.9 1.7 0.00 0.43 0.43 92 1012.6
20260904031031 81 79 0.0 1.7 0.00 0.43 0.43 92 1012.6
20260904030016 81 127 0.0 1.7 0.00 0.43 0.43 92 1012.6
20260904025037 81 128 0.0 0.9 0.00 0.43 0.43 92 1012.6
20260904024017 80 88 0.9 1.7 0.00 0.43 0.43 93 1012.5
20260904023037 80 115 0.9 2.6 0.00 0.43 0.43 93 1012.3
20260904022017 80 95 0.9 1.7 0.00 0.43 0.43 94 1012.2
20260904021018 79 112 0.0 0.0 0.00 0.43 0.43 94 1012.1
20260904020017 79 173 0.0 0.9 0.00 0.43 0.43 94 1012.0
20260904015017 79 0.0 0.0 0.00 0.43 0.43 93 1012.0
20260904014018 79 0.0 0.0 0.00 0.43 0.43 93 1011.8
20260904013018 80 194 0.0 0.9 0.00 0.43 0.43 92 1011.8
20260904012018 80 96 0.0 0.9 0.00 0.43 0.43 92 1011.8
20260904011018 80 74 0.0 0.9 0.00 0.43 0.43 91 1011.7
20260904010018 80 4 0.9 1.7 0.00 0.43 0.43 90 1011.7
20260904005019 80 40 0.9 1.7 0.00 0.43 0.43 90 1011.6
20260904004018 80 77 0.9 2.6 0.00 0.43 0.43 90 1011.6
20260904003019 80 68 1.7 2.6 0.00 0.43 0.43 90 1011.6
20260904002019 80 58 0.9 1.7 0.00 0.43 0.43 91 1011.7
20260904001019 80 50 0.9 1.7 0.00 0.43 0.43 91 1011.8
20260904000039 80 52 0.9 1.7 0.00 0.43 0.43 92 1011.8
20260903235019 80 35 0.9 1.7 0.00 0.43 0.43 92 1011.8
20260903234020 80 51 0.9 1.7 0.00 0.43 0.43 92 1011.7
20260903233019 79 38 1.7 2.6 0.00 0.43 0.43 92 1011.9
20260903232019 79 61 0.9 1.7 0.00 0.43 0.43 93 1012.0
20260903231100 79 76 1.7 2.6 0.00 0.43 0.43 92 1012.0
20260903230040 79 74 1.7 2.6 0.00 0.43 0.43 93 1012.1
20260903225020 79 60 1.7 2.6 0.00 0.43 0.43 94 1012.0
20260903224040 79 30 1.7 3.5 0.01 0.43 0.43 94 1012.0
20260903223020 78 77 1.7 2.6 0.03 0.43 0.43 94 1012.1
20260903222021 78 26 0.9 2.6 0.04 0.43 0.43 94 1012.1
20260903221020 78 56 1.7 2.6 0.06 0.43 0.43 94 1012.0
20260903220041 78 74 2.6 4.3 0.09 0.43 0.43 94 1012.2
20260903215021 78 73 1.7 2.6 0.13 0.42 0.42 95 1012.4
20260903214101 78 94 1.7 2.6 0.15 0.42 0.42 96 1012.8
20260903213021 78 343 0.0 1.7 0.15 0.40 0.40 95 1012.9
20260903212021 78 210 0.0 1.7 0.15 0.39 0.39 95 1012.9
20260903211021 78 312 0.9 1.7 0.14 0.37 0.37 95 1012.9
20260903210021 78 190 0.0 0.0 0.11 0.34 0.34 95 1012.9
20260903205021 78 0.0 0.0 0.07 0.30 0.30 94 1013.0
20260903204037 78 212 0.0 0.9 0.06 0.27 0.27 94 1013.1
20260903203022 78 31 0.9 1.7 0.04 0.25 0.25 94 1013.1
20260903202022 78 86 0.0 0.9 0.03 0.23 0.23 94 1013.3
20260903201022 78 261 0.9 1.7 0.05 0.23 0.23 94 1013.1
20260903200022 78 278 1.7 3.5 0.20 0.22 0.22 94 1013.2
20260903195022 78 312 0.9 2.6 0.21 0.22 0.22 93 1013.3
20260903194023 78 341 0.9 1.7 0.20 0.21 0.21 92 1013.4
20260903193022 78 226 0.9 2.6 0.20 0.21 0.21 91 1013.6
20260903192020 78 254 4.3 6.1 0.19 0.20 0.20 92 1013.7
20260903191038 80 58 1.7 3.5 0.17 0.18 0.18 89 1013.6
20260903190023 83 89 2.6 3.5 0.01 0.02 0.02 79 1013.6
20260903185020 84 78 2.6 6.1 0.00 0.01 0.01 74 1013.5
20260903184020 85 66 3.5 7.0 0.00 0.01 0.01 74 1013.3
20260903183047 86 35 2.6 3.5 0.00 0.01 0.01 73 1013.4
20260903182032 87 33 2.6 5.2 0.00 0.01 0.01 70 1013.3
20260903181017 88 26 2.6 5.2 0.00 0.01 0.01 67 1013.3
20260903180018 90 40 1.7 3.5 0.00 0.01 0.01 64 1013.3
20260903175130 91 49 0.9 2.6 0.00 0.01 0.01 65 1013.3
20260903174050 92 157 0.9 1.7 0.00 0.01 0.01 63 1013.3
20260903173017 91 264 0.9 1.7 0.00 0.01 0.01 65 1013.2
20260903172021 91 203 2.6 4.3 0.00 0.01 0.01 63 1013.1
20260903171018 91 251 1.7 3.5 0.00 0.01 0.01 65 1013.4
20260903170019 91 212 1.7 3.5 0.00 0.01 0.01 66 1013.6
20260903165038 91 263 2.6 5.2 0.00 0.01 0.01 67 1013.7
20260903164018 90 210 2.6 5.2 0.00 0.01 0.01 68 1013.8
20260903163019 89 0.0 0.0 0.00 0.01 0.01 70 1013.7
20260903162025 88 222 1.7 2.6 0.00 0.01 0.01 71 1013.8
20260903161040 88 246 2.6 5.2 0.00 0.01 0.01 73 1013.9
20260903160258 0 190 1.7 4.3 0.00 0.01 0.01
20260903154522 86 0.0 0.0 0.00 0.01 0.01 78 1013.7
20260903153525 86 132 0.9 0.9 0.00 0.01 0.01 78 1013.8
20260903152646 0 28 0.9 0.9 0.00 0.01 0.01
20260903150549 85 187 3.5 6.1 0.00 0.01 0.01 80 1014.0
20260903145525 85 190 1.7 3.5 0.00 0.01 0.01 81 1014.0
20260903144609 85 190 1.7 3.5 0.00 0.01 0.01 82 1014.0
20260903143525 84 174 0.9 1.7 0.00 0.01 0.01 83 1014.0
20260903142541 84 143 1.7 3.5 0.00 0.01 0.01 85 1013.9
20260903141655 83 156 0.9 1.7 0.00 0.01 0.01 86 1013.9
20260903140555 83 49 0.9 2.6 0.00 0.01 0.01 88 1013.9
20260903135609 82 138 0.9 1.7 0.00 0.01 0.01 89 1013.9
20260903134526 82 50 0.9 1.7 0.00 0.01 0.01 90 1013.9
20260903133526 82 31 0.0 0.9 0.00 0.01 0.01 90 1013.9
20260903132046 81 62 0.0 0.9 0.00 0.01 0.01 90 1013.8
20260903131046 81 178 0.9 1.7 0.00 0.01 0.01 90 1013.8
20260903130027 81 52 0.9 0.9 0.00 0.01 0.01 90 1013.7
20260903124527 81 308 0.0 0.9 0.00 0.01 0.01 90 1013.4
20260903123027 81 200 0.0 0.0 0.00 0.01 0.01 88 1013.2
20260903121602 81 166 0.9 1.7 0.00 0.01 0.01 86 1013.1
20260903115547 81 155 1.7 2.6 0.00 0.01 0.01 87 1013.0
20260903113528 81 167 2.6 4.3 0.00 0.01 0.01 86 1013.1
20260903112519 82 157 2.6 4.3 0.00 0.01 0.01 85 1013.1
20260903111519 82 169 2.6 4.3 0.00 0.01 0.01 83 1013.0
20260903110528 82 185 1.7 3.5 0.00 0.01 0.01 85 1013.0
20260903105548 82 171 1.7 3.5 0.00 0.01 0.01 85 1013.0
20260903104528 82 224 0.9 2.6 0.00 0.01 0.01 85 1012.9
20260903103528 82 187 1.7 2.6 0.00 0.01 0.01 85 1012.8
20260903102048 82 196 0.0 1.7 0.00 0.01 0.01 85 1012.7
20260903101029 82 196 1.7 3.5 0.00 0.01 0.01 85 1012.8
20260903100029 83 162 0.9 2.6 0.00 0.01 0.01 85 1012.7
20260903095029 82 166 1.7 3.5 0.00 0.01 0.01 86 1012.8
20260903094029 83 168 0.9 1.7 0.00 0.01 0.01 86 1012.7
20260903093029 83 162 1.7 3.5 0.00 0.01 0.01 85 1012.8
20260903092020 83 173 1.7 4.3 0.00 0.01 0.01 85 1012.7
20260903091030 83 182 1.7 3.5 0.00 0.01 0.01 85 1012.7
20260903090049 83 164 1.7 4.3 0.00 0.01 0.01 85 1012.7
20260903085030 83 181 0.9 3.5 0.00 0.01 0.01 85 1012.8
20260903084030 83 165 2.6 4.3 0.00 0.01 0.01 85 1012.7
20260903083030 83 185 1.7 2.6 0.00 0.01 0.01 84 1012.6
20260903082030 83 178 0.9 1.7 0.00 0.01 0.01 84 1012.6
20260903081030 83 179 1.7 3.5 0.00 0.01 0.01 84 1012.5
20260903080110 83 182 1.7 2.6 0.00 0.01 0.01 84 1012.5
20260903075030 83 185 1.7 3.5 0.00 0.01 0.01 84 1012.5
20260903074016 83 177 1.7 2.6 0.00 0.01 0.01 85 1012.6
20260903073030 83 197 1.7 3.5 0.00 0.01 0.01 85 1012.6
20260903072021 83 188 0.9 4.3 0.00 0.01 0.01 85 1012.7
20260903071031 83 170 1.7 2.6 0.00 0.01 0.01 86 1012.7
20260903070031 82 183 0.9 1.7 0.00 0.01 0.01 86 1012.9
20260903065031 83 164 1.7 2.6 0.00 0.01 0.01 86 1013.0
20260903063557 83 182 0.9 1.7 0.01 0.01 0.01 86 1013.3
20260903062516 83 182 0.9 1.7 0.01 0.01 0.01 86 1013.3
20260903061517 83 189 0.9 1.7 0.01 0.01 0.01 86 1013.3
20260903060557 83 226 0.0 1.7 0.00 0.00 0.00 85 1013.4
20260903055516 84 117 0.9 1.7 0.00 0.00 0.00 84 1013.5
20260903054532 84 167 0.9 1.7 0.00 0.00 0.00 84 1013.6
20260903053517 84 53 0.9 2.6 0.00 0.00 0.00 83 1013.6
20260903052547 84 170 1.7 1.7 0.00 0.00 0.00 83 1013.8
20260903051517 84 200 0.9 2.6 0.00 0.00 0.00 83 1014.1
20260903050517 84 197 0.9 1.7 0.00 0.00 0.00 83 1014.2
20260903045518 84 199 0.9 1.7 0.00 0.00 0.00 83 1014.3
20260903044517 84 242 0.0 0.9 0.00 0.00 0.00 83 1014.2
20260903043518 84 149 0.9 1.7 0.00 0.00 0.00 83 1014.1
20260903042516 84 73 1.7 2.6 0.00 0.00 0.00 83 1014.0